Regional Weather Roundup
Issued by NWS Cleveland, OH

Home | Current Version | Previous Version | Graphics & Text | Print | Product List | Glossary On
Versions: 1 2 3 4 5 6 7 8 9 10 11 12 13 14 15 16 17 18 19 20 21 22 23 24 25 26 27 28 29 30 31 32 33 34 35 36 37 38 39 40 41 42 43 44 45 46 47 48 49 50
000
ASUS41 KCLE 230310
RWRCLE
OHIO REGIONAL WEATHER ROUNDUP
NATIONAL WEATHER SERVICE CLEVELAND, OH
1100 PM EDT FRI AUG 22 2014

NOTE: "FAIR" INDICATES FEW OR NO CLOUDS BELOW 12,000 FEET WITH NO
SIGNIFICANT WEATHER AND/OR OBSTRUCTIONS TO VISIBILITY.

OHZ001>008-015>018-024>027-034-035-043-044-230400-
   NORTHWEST OHIO

CITY           SKY/WX    TMP DP  RH WIND       PRES   REMARKS
DEFIANCE       CLOUDY    76  72  87 CALM      30.00R
FINDLAY        MOCLDY    76  72  87 NE3       30.00R
TOLEDO EXPRESS CLOUDY    72  71  97 CALM      30.00R
TOLEDO EXEC    CLEAR     74  70  87 NE5       30.01R
LIMA           MOCLDY    75  72  90 SE3       30.01R
$$

OHZ009>014-019>023-028>033-038-089-230400-
   NORTHEAST OHIO

CITY           SKY/WX    TMP DP  RH WIND       PRES   REMARKS
CLE-HOPKINS    PTCLDY    73  68  84 NE5       30.01S
CLE-LAKEFRONT  CLEAR     73  71  93 NE5       29.99R
CUY CO. ARPT   CLEAR     72  72 100 E6        30.01S
LORAIN-ELYRIA  CLEAR     73  67  81 CALM      30.01R HAZE
ASHTABULA      CLEAR     67  65  93 CALM      30.01S
AKRON-CANTON   PTCLDY    72  68  87 NE5       30.01R
WOOSTER        CLEAR     72  67  84 N3        30.02R
MANSFIELD      CLOUDY    72  70  93 N5        30.02R
YOUNGSTOWN     MOCLDY    70  67  90 NE5       30.01R
$$

OHZ042-051>053-060>062-070>072-077>081-230400-
  SOUTHWEST OHIO

CITY           SKY/WX    TMP DP  RH WIND       PRES   REMARKS
CINC-COVINGTON PTCLDY    74  71  91 CALM      30.01S
CINC-LUNKEN    PTCLDY    74  73  97 CALM      30.00R
HAMILTON       PTCLDY    73  73 100 CALM      30.01R FOG
DAYTON         PTCLDY    73  70  90 W3        30.03R
WRIGHT-PAT AFB CLEAR     72  71  98 CALM      30.01R
DAYTON GENERAL PTCLDY    74  72  93 CALM      30.01R
WILMINGTON     FOG       69  68  96 SW3       30.02R VSB 1/4
$$

OHZ036-037-039>041-045>050-054>059-063>069-073>076-082>088-230400-
  CENTRAL AND SOUTHEAST OHIO

CITY           SKY/WX    TMP DP  RH WIND       PRES   REMARKS
COLUMBUS       PTCLDY    77  71  82 CALM      29.98S
OSU AIRPORT    CLEAR     75  72  90 CALM      29.99S
BOLTON FIELD   CLEAR     72  71  98 CALM      30.00R
RICKENBACK AFB   N/A     73  68  86 CALM      29.98S
NEWARK         PTCLDY    72  70  93 CALM      29.99R
MARION         CLEAR     72  70  93 N5        30.01R FOG
LANCASTER      PTCLDY    72  69  90 CALM      30.00R FOG
ZANESVILLE     MOCLDY    74  71  91 SW3       29.99S
NEW PHILLY     FOG       70  69  97 CALM      30.01R VSB 1
$$


USA.gov is the U.S. government's official web portal to all federal, state and local government web resources and services.